Miscellaneous Local Product
Issued by NWS Hastings, NE

Home | Current Version | Previous Version | Graphics & Text | Print | Product List | Glossary On
Versions: 1 2 3 4 5 6 7 8 9 10 11 12 13 14 15 16 17 18 19 20 21 22 23 24 25 26 27 28 29 30 31 32 33 34 35 36 37 38 39 40 41 42 43 44 45 46 47 48 49 50
000
AXUS43 KGID 182002
MISGRI

GID CWA HOURLY WEATHER ROUNDUP
NATIONAL WEATHER SERVICE HASTINGS NE
200 PM CST WED JAN 18 2017

NOTE: "FAIR" INDICATES FEW OR NO CLOUDS BELOW 12,000 FEET WITH NO
SIGNIFICANT WEATHER AND/OR OBSTRUCTIONS TO VISIBILITY.

...SOUTH CENTRAL NEBRASKA...

CITY           SKY/WX    TMP DP  RH WIND       PRES   REMARKS
GRAND ISLAND   CLOUDY    47  40  76 S17       29.87F
HASTINGS       SUNNY     47  39  74 S13       29.90F
KEARNEY        CLOUDY    46  37  71 S16       29.87F
ORD            SUNNY     47  37  68 S10       29.82F
YORK           SUNNY     43  39  87 S10       29.90F
AURORA         SUNNY     44  39  83 S10G16    29.89F
LEXINGTON      CLOUDY    39  33  80 S14       29.85F WCI  30
HOLDREGE       CLOUDY    44  37  76 S14G21    29.87F
HEBRON         SUNNY     46  38  75 S9        29.94F

...NEBRASKA PANHANDLE...

CITY           SKY/WX    TMP DP  RH WIND       PRES   REMARKS
CHADRON        CLOUDY    37  24  59 SW6       29.76F WCI  32
ALLIANCE       SUNNY     50  21  32 SW7       29.76F
SCOTTSBLUFF    SUNNY     50  23  34 MISG      29.78F
SIDNEY         CLOUDY    48  26  42 SW10      29.80F

...WESTERN AND NORTH CENTRAL NEBRASKA...

CITY           SKY/WX    TMP DP  RH WIND       PRES   REMARKS
VALENTINE      SUNNY     56  19  23 W7        29.74F
AINSWORTH      SUNNY     55  25  31 S10       29.76F
ONEILL         SUNNY     55  30  39 SW12      29.80F
BROKEN BOW     SUNNY     47  36  65 S9        29.81F
IMPERIAL       SUNNY     44  28  53 SW7       29.82F
NORTH PLATTE   SUNNY     50  30  46 SW7       29.82F
MCCOOK         SUNNY     42  35  76 VRB5      29.87F

...EASTERN NEBRASKA...

CITY           SKY/WX    TMP DP  RH WIND       PRES   REMARKS
NORFOLK        SUNNY     47  38  71 S14       29.84F
SO SIOUX CITY  SUNNY     50  40  68 SW10      29.88F
TEKAMAH        SUNNY     48  40  73 S12       29.90F
COLUMBUS       SUNNY     48  39  71 S16G25    29.88F
ALBION         SUNNY     45  38  77 S10G16    29.84F
OMAHA EPPLEY   MOSUNNY   48  39  71 S14       29.93F
OFFUTT AFB     SUNNY     47  44  88 S13       29.94F
MILLARD        SUNNY     53  41  65 SE9       29.93F
LINCOLN        SUNNY     51  39  63 S15       29.94F
NEBRASKA CITY  SUNNY     49  36  62 S12       29.97F
BEATRICE       SUNNY     49  39  68 S12       29.97F
FALLS CITY     SUNNY     51  38  60 S10       29.99F

...NORTHERN KANSAS...

CITY           SKY/WX    TMP DP  RH WIND       PRES   REMARKS
GOODLAND       SUNNY     46  34  62 S6        29.84F
HILL CITY      CLOUDY    50  39  66 S13       29.90F
NORTON         PTCLDY    46  36  66 S12       29.88F
PHILLIPSBURG   SUNNY     52  39  62 S9        29.91F
SMITH CENTER   SUNNY     52  41  66 S13       29.91F
HAYS           PTSUNNY   54  42  64 S21       29.90F
RUSSELL        NOT AVBL
CONCORDIA      SUNNY     52  38  58 S12G22    29.93F
SALINA         SUNNY     52  36  54 S17       30.00F
TOPEKA         SUNNY     53  36  52 S9        30.02F



USA.gov is the U.S. government's official web portal to all federal, state and local government web resources and services.